This is the latest recevied weather packets stored in our database for station/object GW1476. If no packets are shown the sender has not sent any weather packets the latest 10 day(s).
| Time | Temp. | Humidity | Pressure | Rain* | Wind** | Luminosity | Snow |
|---|---|---|---|---|---|---|---|
| 1777123843 | 16.11° C | 99% | 1012.8 hPa | 0 mm | - | - | - |
| 1777123476 | 16.11° C | 98% | 1012.8 hPa | 0 mm | - | - | - |
| 1777121660 | 15.56° C | 99% | 1012.8 hPa | 0 mm | - | - | - |
| 1777112681 | 13.33° C | 99% | 1011.5 hPa | 0 mm | - | - | - |
| 1777105103 | 13.33° C | 99% | 1011.5 hPa | 0 mm | - | - | - |
| 1777104380 | 13.33° C | 99% | 1011.5 hPa | 0 mm | - | - | - |
| 1777101152 | 13.33° C | 99% | 1011.5 hPa | 0 mm | - | - | - |
| 1777098291 | 12.78° C | 99% | 1011.1 hPa | 0 mm | - | - | - |
| 1777094690 | 13.33° C | 99% | 1011.5 hPa | 0 mm | - | - | - |
| 1777092876 | 13.89° C | 99% | 1011.5 hPa | 0 mm | - | - | - |
| 1777090711 | 14.44° C | 99% | 1011.5 hPa | 0 mm | - | - | - |
| 1777080998 | 17.78° C | 85% | 1011.1 hPa | 0 mm | - | - | - |
| 1777079539 | 18.89° C | 81% | 1010.8 hPa | 0 mm | - | - | - |
| 1777074887 | 24.44° C | 60% | 1010.1 hPa | 0 mm | - | - | - |
| 1777074146 | 25.56° C | 56% | 1010.1 hPa | 0 mm | - | - | - |
| 1777072697 | 28.89° C | 50% | 1010.1 hPa | 0 mm | - | - | - |
| 1777071621 | 30° C | 42% | 1009.8 hPa | 0 mm | - | - | - |
| 1777070175 | 28.89° C | 44% | 1009.8 hPa | 0 mm | - | - | - |
| 1777068397 | 30.56° C | 39% | 1009.8 hPa | 0 mm | - | - | - |
| 1777066228 | 30.56° C | 41% | 1010.1 hPa | 0 mm | - | - | - |
| 1777063721 | 33.33° C | 37% | 1010.4 hPa | 0 mm | - | - | - |
| 1777062654 | 33.33° C | 38% | 1010.4 hPa | 0 mm | - | - | - |
| 1777062288 | 33.33° C | 38% | 1010.4 hPa | 0 mm | - | - | - |
| 1777059394 | 29.44° C | 42% | 1011.5 hPa | 0 mm | - | - | - |
| 1777032037 | 11.67° C | 99% | 1015.9 hPa | 0 mm | - | - | - |
* Rain since midnight (hover to see other rain measurements)
** Current wind speed in m/s (hover to see current wind gust speed)